CW9533 Torre Faro Messina IT current weather conditions

sailwx.info

Wind from 146 at 10 knots gusting 14

Air temperature 27.8° C
Dewpoint 20.8° C

Last reported at 2016-Jul-29 09:48 UTC.
Time now 2016-Jul-29 10:11 UTC

Location: N 38°16' E 015°39'.
View on Google Maps.

See reports from other nearby stations

  
Tides and Currents Weather Stations Pressure Air Temp Water Temp Dewpoint Dewpoint Depression Visibility Wind Speed Wind Dir Waves Ship Positions
date/time (UTC)wind fromknots sea level pressurealtimeterstation pressurevisibilityair tempwater tempwave heightnotes
2016-Jul-29 09:48 146 10 gusting 14 27.8
2016-Jul-29 09:33 146 7 gusting 14 27.8
2016-Jul-29 09:18 146 10 gusting 15 27.2
2016-Jul-29 09:03 146 8 gusting 13 27.2
2016-Jul-29 08:48 146 7 gusting 13 27.2
2016-Jul-29 08:33 146 7 gusting 13 27.2
2016-Jul-29 08:18 146 6 gusting 10 27.2
2016-Jul-29 08:03 146 6 gusting 9 27.2
2016-Jul-29 07:48 146 5 gusting 9 27.2
2016-Jul-29 07:33 146 6 gusting 10 26.7
2016-Jul-29 07:18 146 4 gusting 11 26.7
2016-Jul-29 07:03 146 6 gusting 10 26.7
2016-Jul-29 06:48 146 5 gusting 9 26.7
2016-Jul-29 06:33 146 4 gusting 8 26.7
2016-Jul-29 06:18 146 5 gusting 11 26.1
2016-Jul-29 06:03 146 4 gusting 12 26.1
2016-Jul-29 05:48 146 5 gusting 9 25.6
2016-Jul-29 05:33 146 2 gusting 7 25.6
2016-Jul-29 05:18 146 3 gusting 8 25.0
2016-Jul-29 05:03 146 3 gusting 7 25.0
2016-Jul-29 04:48 146 3 gusting 7 24.4
2016-Jul-29 04:33 146 4 gusting 11 24.4
2016-Jul-29 04:18 146 3 gusting 8 24.4
2016-Jul-29 04:03 146 3 gusting 9 24.4
2016-Jul-29 03:48 146 4 gusting 7 24.4
2016-Jul-29 03:33 146 6 gusting 9 24.4
2016-Jul-29 03:18 146 4 gusting 8 24.4
2016-Jul-29 03:03 146 6 gusting 9 24.4
2016-Jul-29 02:48 146 6 gusting 13 24.4
2016-Jul-29 02:33 146 6 gusting 10 24.4
2016-Jul-29 02:26 146 4 gusting 11 24.4
2016-Jul-28 23:02 146 6 gusting 7 25.6
2016-Jul-28 22:47 146 5 gusting 8 25.0
2016-Jul-28 22:32 146 3 gusting 6 25.0
2016-Jul-28 22:17 146 3 gusting 8 25.0
2016-Jul-28 22:02 146 5 gusting 8 25.0
2016-Jul-28 21:47 146 4 gusting 6 25.0
2016-Jul-28 21:32 146 3 gusting 6 25.0
2016-Jul-28 21:17 146 3 gusting 6 25.6
2016-Jul-28 21:02 146 4 gusting 7 25.6
2016-Jul-28 20:47 146 4 gusting 8 25.6
2016-Jul-28 20:32 146 5 gusting 12 25.6
2016-Jul-28 20:17 146 6 gusting 12 25.6
2016-Jul-28 20:02 146 6 gusting 10 25.6
2016-Jul-28 19:47 146 5 gusting 9 25.6
2016-Jul-28 19:32 146 4 gusting 8 25.6
2016-Jul-28 19:17 146 4 gusting 10 25.6
2016-Jul-28 19:02 146 5 gusting 10 26.1
2016-Jul-28 18:47 146 4 gusting 11 26.1
2016-Jul-28 18:32 146 4 gusting 9 26.1
2016-Jul-28 18:17 146 3 gusting 8 26.1
2016-Jul-28 18:02 146 4 gusting 8 26.1
2016-Jul-28 17:52 146 5 gusting 12 26.1
2016-Jul-28 17:32 146 5 gusting 9 26.7
2016-Jul-28 17:17 146 4 gusting 10 26.7
2016-Jul-28 17:02 146 5 gusting 10 26.7
2016-Jul-28 16:47 146 6 gusting 12 26.7
2016-Jul-28 16:32 146 6 gusting 11 27.2
2016-Jul-28 16:17 146 6 gusting 10 27.2
2016-Jul-28 16:02 146 5 gusting 13 27.2
2016-Jul-28 15:47 146 7 gusting 14 27.2
2016-Jul-28 15:32 146 10 gusting 14 26.7
2016-Jul-28 15:17 146 6 gusting 14 27.2
2016-Jul-28 15:02 146 6 gusting 15 27.2
2016-Jul-28 14:47 146 7 gusting 16 27.2
2016-Jul-28 14:32 146 8 gusting 13 27.2
2016-Jul-28 14:17 146 7 gusting 13 27.8
2016-Jul-28 14:02 146 6 gusting 13 27.8
2016-Jul-28 13:47 146 6 gusting 16 27.2
2016-Jul-28 13:32 146 7 gusting 13 27.2
2016-Jul-28 13:17 146 8 gusting 16 27.2
2016-Jul-28 13:02 146 9 gusting 15 27.2
2016-Jul-28 12:47 146 10 gusting 17 27.2
2016-Jul-28 12:32 146 8 gusting 15 27.2
2016-Jul-28 12:17 146 9 gusting 15 27.2
2016-Jul-28 12:02 146 9 gusting 17 27.2
2016-Jul-28 11:47 146 7 gusting 14 27.8
2016-Jul-28 11:32 146 8 gusting 16 27.8
2016-Jul-28 11:17 146 6 gusting 13 27.8
2016-Jul-28 11:02 146 6 gusting 13 27.8
2016-Jul-28 10:47 146 6 gusting 14 27.8
2016-Jul-28 10:31 146 8 gusting 14 27.8
2016-Jul-28 10:17 146 5 gusting 12 27.8
2016-Jul-28 10:02 146 6 gusting 13 27.8
2016-Jul-28 09:47 146 5 gusting 10 28.3
2016-Jul-28 09:32 146 6 gusting 11 27.8
2016-Jul-28 09:16 145 5 gusting 13 27.8
2016-Jul-28 09:02 145 6 gusting 11 27.8
2016-Jul-28 08:46 145 6 gusting 13 27.8
2016-Jul-28 08:31 145 7 gusting 14 27.8
2016-Jul-28 08:16 145 7 gusting 13 27.2
2016-Jul-28 08:01 144 7 gusting 13 27.2
2016-Jul-28 07:46 145 8 gusting 13 26.7
2016-Jul-28 07:31 145 6 gusting 14 26.7
2016-Jul-28 07:16 145 6 gusting 16 26.1
2016-Jul-28 07:01 146 8 gusting 13 26.1
2016-Jul-28 06:46 146 6 gusting 13 26.1
2016-Jul-28 06:31 146 6 gusting 12 25.6
2016-Jul-28 06:16 146 6 gusting 13 25.6
2016-Jul-28 06:01 146 4 gusting 13 25.0
2016-Jul-28 05:46 146 6 gusting 11 25.0
2016-Jul-28 05:31 146 6 gusting 12 25.0
2016-Jul-28 05:16 146 5 gusting 10 25.0
2016-Jul-28 05:01 146 3 gusting 11 24.4
2016-Jul-28 04:46 146 5 gusting 11 24.4
2016-Jul-28 04:31 146 6 gusting 11 24.4
2016-Jul-28 04:16 146 4 gusting 8 24.4
2016-Jul-28 04:01 146 4 gusting 11 24.4
2016-Jul-28 03:31 146 2 gusting 7 24.4
2016-Jul-28 03:16 146 2 gusting 6 24.4
2016-Jul-28 03:01 146 1 gusting 10 24.4
2016-Jul-28 02:46 146 4 gusting 7 24.4
2016-Jul-28 02:31 150 1 gusting 8 24.4
2016-Jul-28 02:16 146 6 gusting 13 24.4
2016-Jul-28 02:01 146 6 gusting 13 24.4
2016-Jul-28 01:46 146 8 gusting 13 24.4
2016-Jul-28 01:31 146 5 gusting 9 24.4
2016-Jul-28 01:16 146 5 gusting 9 24.4
2016-Jul-28 01:01 146 6 gusting 9 24.4
2016-Jul-28 00:46 146 4 gusting 11 24.4
2016-Jul-28 00:31 146 5 gusting 10 25.0
2016-Jul-28 00:16 146 4 gusting 8 25.0
2016-Jul-28 00:01 146 4 gusting 10 25.0
2016-Jul-27 23:46 146 5 gusting 10 25.0
2016-Jul-27 23:31 146 6 gusting 10 25.0
2016-Jul-27 23:16 146 5 gusting 10 25.0
2016-Jul-27 23:01 146 6 gusting 10 25.0
2016-Jul-27 22:46 146 6 gusting 11 25.0
2016-Jul-27 22:31 146 4 gusting 10 25.0
2016-Jul-27 22:15 146 6 gusting 12 25.0
2016-Jul-27 22:01 146 6 gusting 11 25.0
2016-Jul-27 21:46 146 6 gusting 10 25.0
2016-Jul-27 21:30 146 5 gusting 11 25.0
2016-Jul-27 21:15 146 5 gusting 11 25.0
2016-Jul-27 21:00 146 5 gusting 10 25.6
2016-Jul-27 20:45 146 4 gusting 11 25.6
2016-Jul-27 20:30 146 6 gusting 10 25.6
2016-Jul-27 20:15 146 4 gusting 11 25.6
2016-Jul-27 20:00 146 5 gusting 10 25.6
2016-Jul-27 19:45 146 5 gusting 9 25.6
2016-Jul-27 19:30 146 5 gusting 11 25.6
2016-Jul-27 19:15 146 4 gusting 8 25.6
2016-Jul-27 19:00 146 5 gusting 10 25.6
2016-Jul-27 18:45 146 5 gusting 10 25.6
2016-Jul-27 18:30 146 6 gusting 10 25.6
2016-Jul-27 18:15 146 6 gusting 12 25.6
2016-Jul-27 18:00 146 6 gusting 10 25.6
2016-Jul-27 17:45 146 6 gusting 11 26.1
2016-Jul-27 17:30 146 6 gusting 12 26.1
2016-Jul-27 17:15 146 5 gusting 11 26.1
2016-Jul-27 17:00 146 6 gusting 11 26.1
2016-Jul-27 16:45 146 6 gusting 10 26.7
2016-Jul-27 16:30 146 6 gusting 11 26.7
2016-Jul-27 16:15 146 6 gusting 11 26.7
2016-Jul-27 16:00 146 4 gusting 10 26.7
2016-Jul-27 15:45 146 5 gusting 11 26.7
2016-Jul-27 15:30 146 6 gusting 11 26.7
2016-Jul-27 15:15 146 6 gusting 11 27.2
2016-Jul-27 15:00 146 3 gusting 10 27.2
2016-Jul-27 14:45 146 5 gusting 13 27.2
2016-Jul-27 14:30 146 9 gusting 15 27.2
2016-Jul-27 14:15 146 10 gusting 15 27.2
2016-Jul-27 14:00 146 7 gusting 12 27.2
2016-Jul-27 13:45 146 6 gusting 13 27.8
2016-Jul-27 13:30 146 5 gusting 13 27.2
2016-Jul-27 13:15 146 5 gusting 14 27.2
2016-Jul-27 13:00 146 9 gusting 13 27.2
2016-Jul-27 12:45 146 8 gusting 17 27.8
2016-Jul-27 12:30 146 6 gusting 14 27.8
2016-Jul-27 12:15 146 8 gusting 14 27.8
2016-Jul-27 12:00 146 8 gusting 16 27.2
2016-Jul-27 11:45 146 6 gusting 13 27.8
2016-Jul-27 11:30 146 7 gusting 14 27.2
2016-Jul-27 11:15 145 6 gusting 12 28.3
2016-Jul-27 11:00 145 6 gusting 11 28.9
2016-Jul-27 10:45 145 6 gusting 15 28.9
2016-Jul-27 10:30 145 5 gusting 11 28.9
2016-Jul-27 10:15 145 6 gusting 16 28.3
2016-Jul-27 10:00 145 5 gusting 10 28.9